Location: Balsareny
(41.8670°N, 1.8830°E)
Time: 04:45:00
(UTC+01:00)

N. Korean satellite - Pass Details

Date: 09 December 2021
Orbit: 447 x 491 km, 97.3° (Epoch: 23 January)

Event Time Altitude Azimuth Distance (km) Brightness Sun altitude
Rises 06:34:39 0° 3° (N) 2,458 10.0 -16.8°
Reaches altitude 10° 06:36:46 10° 356° (N) 1,580 9.0 -16.4°
Maximum altitude 06:39:55 38° 287° (WNW) 706 6.8 -15.9°
Drops below altitude 10° 06:43:04 10° 218° (SW) 1,573 8.9 -15.3°
Sets 06:45:10 0° 210° (SSW) 2,445 10.0 -14.9°
